[TLELIST] Archives

 

[TLELIST] Current TLEs

February 4th 2025 PST

HST 1 20580U 90037B 25034.93539268 .00009395 00000-0 38141-3 0 9999 2 20580 28.4667 226.6599 0002892 54.4457 305.6407 15.22840268712596 ISS (ZARYA) 1 25544U 98067A 25035.06542019 .00017864 00000-0 32270-3 0 9995 2 25544 51.6385 246.3830 0003595 271.3736 238.6066 15.49782580494510 CXO 1 25867U 99040B 25037.21592970 .00000716 00000-0 00000-0 0 9996 2 25867 46.5701 136.5229 8614898 306.8174 0.4690 0.37805710 15459 ...Continue Reading

[TLELIST] Current TLEs

February 4th 2025 PST

HST 1 20580U 90037B 25034.93539268 .00009395 00000-0 38141-3 0 9999 2 20580 28.4667 226.6599 0002892 54.4457 305.6407 15.22840268712596 ISS (ZARYA) 1 25544U 98067A 25035.06542019 .00017864 00000-0 32270-3 0 9995 2 25544 51.6385 246.3830 0003595 271.3736 238.6066 15.49782580494510 CXO 1 25867U 99040B 25037.21592970 .00000716 00000-0 00000-0 0 9996 2 25867 46.5701 136.5229 8614898 306.8174 0.4690 0.37805710 15459 ...Continue Reading

[TLELIST] Current TLEs

February 3rd 2025 PST

HST 1 20580U 90037B 25033.88682078 .00010824 00000-0 44093-3 0 9992 2 20580 28.4670 233.7411 0002847 45.2106 314.8719 15.22820558712173 ISS (ZARYA) 1 25544U 98067A 25034.07131547 .00016284 00000-0 29531-3 0 9996 2 25544 51.6354 251.3091 0003822 264.9942 95.0610 15.49744873494367 CXO 1 25867U 99040B 25034.57271092 .00000777 00000-0 00000+0 0 9997 2 25867 46.4752 136.7449 8617405 306.6835 0.7290 0.37806517 26591 ...Continue Reading

[TLELIST] Current TLEs

February 2nd 2025 PST

HST 1 20580U 90037B 25032.77269642 .00010738 00000-0 43766-3 0 9997 2 20580 28.4674 241.2648 0002816 33.5318 326.5454 15.22797315712006 ISS (ZARYA) 1 25544U 98067A 25032.73245786 .00013805 00000-0 25233-3 0 9999 2 25544 51.6350 257.9368 0003396 260.4392 185.1884 15.49668340494153 CXO 1 25867U 99040B 25034.57271092 .00000777 00000-0 00000+0 0 9997 2 25867 46.4752 136.7449 8617405 306.6835 0.7290 0.37806517 26591 ...Continue Reading

[TLELIST] Current TLEs

February 1st 2025 PST

HST 1 20580U 90037B 25031.92070714 .00009523 00000-0 38741-3 0 9990 2 20580 28.4675 247.0180 0002785 25.3951 334.6780 15.22779462711878 ISS (ZARYA) 1 25544U 98067A 25032.16305314 .00016120 00000-0 28210-3 0 9991 2 25544 51.6379 260.7592 0002069 153.7231 352.3252 15.50771351494063 CXO 1 25867U 99040B 25034.57271092 .00000777 00000-0 00000+0 0 9997 2 25867 46.4752 136.7449 8617405 306.6835 0.7290 0.37806517 26591 ...Continue Reading

[TLELIST] Current TLEs

January 31st 2025 PST

HST 1 20580U 90037B 25030.80655364 .00009489 00000-0 38625-3 0 9998 2 20580 28.4676 254.5411 0002714 15.0254 345.0421 15.22758261711707 ISS (ZARYA) 1 25544U 98067A 25030.94616898 .00017245 00000-0 30159-3 0 9991 2 25544 51.6392 266.7922 0002197 150.6796 37.3757 15.50733764493879 CXO 1 25867U 99040B 25031.93036384 .00000888 00000-0 00000-0 0 9991 2 25867 46.3828 136.9645 8617502 306.5684 1.0152 0.37801687 15438 ...Continue Reading

[TLELIST] Current TLEs

January 31st 2025 PST

HST 1 20580U 90037B 25030.80655364 .00009489 00000-0 38625-3 0 9998 2 20580 28.4676 254.5411 0002714 15.0254 345.0421 15.22758261711707 ISS (ZARYA) 1 25544U 98067A 25030.94616898 .00017245 00000-0 30159-3 0 9991 2 25544 51.6392 266.7922 0002197 150.6796 37.3757 15.50733764493879 CXO 1 25867U 99040B 25031.93036384 .00000888 00000-0 00000-0 0 9991 2 25867 46.3828 136.9645 8617502 306.5684 1.0152 0.37801687 15438 ...Continue Reading

[TLELIST] Current TLEs

January 31st 2025 PST

HST 1 20580U 90037B 25030.80655364 .00009489 00000-0 38625-3 0 9998 2 20580 28.4676 254.5411 0002714 15.0254 345.0421 15.22758261711707 ISS (ZARYA) 1 25544U 98067A 25030.94616898 .00017245 00000-0 30159-3 0 9991 2 25544 51.6392 266.7922 0002197 150.6796 37.3757 15.50733764493879 CXO 1 25867U 99040B 25031.93036384 .00000888 00000-0 00000-0 0 9991 2 25867 46.3828 136.9645 8617502 306.5684 1.0152 0.37801687 15438 ...Continue Reading

[TLELIST] Current TLEs

January 30th 2025 PST

HST 1 20580U 90037B 25029.95454338 .00010112 00000-0 41235-3 0 9996 2 20580 28.4676 260.2939 0002663 6.9452 353.1178 15.22742027711575 ISS (ZARYA) 1 25544U 98067A 25030.28752407 .00017371 00000-0 30397-3 0 9999 2 25544 51.6396 270.0592 0002237 149.8639 318.8131 15.50711335493777 CXO 1 25867U 99040B 25031.93036384 .00000888 00000-0 00000-0 0 9991 2 25867 46.3828 136.9645 8617502 306.5684 1.0152 0.37801687 15438 ...Continue Reading

[TLELIST] Current TLEs

January 30th 2025 PST

HST 1 20580U 90037B 25029.95454338 .00010112 00000-0 41235-3 0 9996 2 20580 28.4676 260.2939 0002663 6.9452 353.1178 15.22742027711575 ISS (ZARYA) 1 25544U 98067A 25030.28752407 .00017371 00000-0 30397-3 0 9999 2 25544 51.6396 270.0592 0002237 149.8639 318.8131 15.50711335493777 CXO 1 25867U 99040B 25031.93036384 .00000888 00000-0 00000-0 0 9991 2 25867 46.3828 136.9645 8617502 306.5684 1.0152 0.37801687 15438 ...Continue Reading
  • This mailing list is a public mailing list - anyone may join or leave, at any time.
  • This mailing list is announce-only.

International Space Station (ISS) / Hubble Space Telescope (HST) / Chandra X-Ray Observatory Orbital Data via EMAIL

Privacy Policy:

Private list